Temperature
25 26 26 28 29 30 30 30 30 30 30 30 30 31 31 30 29 29 28 27 25 24 23 21 20 20 19 19 19 19 19 19 19 18 18 18 18 18 18 18 18 18 18 17
25 25 27 28 28 28 28 29 29 29 29 29 30 30 30 30 29 29 28 27 26 24 23 21 20 20 19 20 20 20 19 19 19 19 19 18 18 18 18 18 18 18 18 17
25 27 28 27 27 27 28 28 29 29 29 29 29 29 30 29 28 28 27 27 26 25 23 21 20 20 20 20 19 19 19 19 19 19 18 18 18 18 17 17 18 18 18 18
26 27 27 26 27 27 27 29 29 28 28 29 29 29 30 30 29 28 27 27 26 25 24 22 21 20 20 20 20 19 19 19 19 19 18 18 18 18 18 18 18 18 18 18
26 26 26 26 27 27 28 28 28 28 28 29 29 29 30 30 29 29 28 27 26 25 24 23 21 21 20 20 19 19 19 19 19 19 18 18 18 18 18 18 17 17 18 18
27 27 27 27 28 28 28 28 28 28 29 27 29 29 29 30 29 29 28 27 25 25 24 23 22 20 20 19 19 19 19 19 19 19 18 18 18 18 18 17 17 17 17 17
25 26 27 28 27 27 27 27 26 26 27 27 29 28 29 29 28 28 28 27 25 24 23 23 21 20 20 19 19 19 19 19 19 18 18 18 18 18 18 17 17 17 17 17
25 25 27 27 27 27 27 28 27 27 27 28 27 28 29 28 27 26 26 25 24 24 23 22 21 20 20 19 19 19 19 18 18 18 18 18 18 17 17 17 17 17 17 17
26 26 27 28 28 28 27 28 29 28 28 28 28 28 28 27 27 26 25 24 24 23 22 22 21 20 20 19 19 19 18 18 18 18 18 18 17 17 17 17 17 17 17 17
27 26 27 27 28 28 29 28 28 28 27 27 28 27 28 27 27 26 26 25 23 22 22 21 20 20 19 19 19 18 18 18 18 18 17 17 17 17 17 17 17 17 17 17
27 26 26 27 26 27 27 28 28 28 28 28 27 28 29 28 27 26 26 24 23 22 21 21 20 19 19 19 18 18 18 18 18 17 17 17 17 17 17 17 17 17 17 17
26 27 26 26 28 28 28 28 28 27 27 28 28 28 27 27 26 26 25 24 23 22 21 21 20 19 19 18 18 18 18 18 17 17 17 17 17 17 17 17 17 17 17 17
26 25 25 25 26 27 27 28 28 28 28 28 28 27 26 26 25 24 24 23 22 21 21 20 19 18 18 18 18 18 18 18 17 17 17 17 17 17 17 17 17 17 17 17
25 25 26 26 26 27 26 27 28 28 27 27 28 27 26 25 25 24 23 22 22 21 20 19 18 18 18 18 18 17 17 17 17 17 17 17 17 17 17 17 17 17 17 17
25 25 26 27 28 28 27 27 27 27 28 28 28 28 27 26 25 23 22 22 21 20 20 19 18 18 17 18 17 17 17 17 17 17 17 17 17 17 17 17 17 16 17 17
24 24 25 25 26 27 27 27 27 27 28 28 28 27 26 24 23 22 22 21 21 20 19 19 18 17 17 17 17 17 17 17 16 16 16 16 16 16 16 16 16 16 16 16
23 23 24 25 26 26 25 26 26 27 27 28 27 26 24 23 23 22 21 21 20 20 19 18 18 17 17 17 17 17 17 16 16 16 16 16 16 16 16 16 16 16 16 16
22 23 24 25 25 24 25 25 26 26 26 26 26 25 24 23 21 20 20 19 19 18 18 18 17 17 17 16 16 16 16 16 16 16 16 16 16 16 16 16 16 16 16 16
21 22 24 24 24 24 24 24 25 25 24 24 24 23 22 20 19 19 17 17 17 17 17 16 16 16 16 16 16 16 16 16 16 16 16 16 16 16 16 16 16 16 16 16
21 21 23 24 24 24 24 24 23 24 23 23 23 22 21 21 23 19 16 16 16 15 16 16 16 16 16 16 16 16 16 16 16 16 16 16 16 16 16 16 16 16 16 16
21 21 22 23 23 24 23 22 23 23 23 22 21 21 21 22 21 16 15 15 15 15 15 15 15 15 15 16 16 15 15 15 15 15 15 15 15 16 16 16 16 16 16 16
21 22 21 22 23 22 21 22 23 21 20 20 20 19 19 17 15 15 14 14 14 14 14 15 15 15 15 15 15 15 15 15 15 15 15 15 15 15 15 15 15 15 15 15
20 20 21 21 20 18 18 19 18 18 18 18 18 17 16 15 15 14 13 13 13 13 14 14 14 14 14 14 14 14 14 14 14 14 14 15 15 15 15 15 15 15 15 15
18 18 19 18 18 17 16 16 17 17 17 17 16 16 15 14 14 13 13 13 13 13 13 13 13 13 13 13 13 13 14 14 14 14 14 14 14 14 14 14 14 14 14 14
18 18 18 17 17 16 16 16 16 16 16 15 15 14 14 14 13 13 12 12 12 12 12 12 12 12 12 13 13 13 13 13 13 13 13 13 13 13 13 13 13 13 13 14
17 18 18 18 16 17 15 15 15 15 15 14 14 13 13 13 12 12 12 12 12 12 12 12 12 12 12 12 12 12 12 13 13 12 12 13 13 13 13 13 13 12 13 13
Wind_Speed
14 15 17 18 18 12 9 12 12 9 6 8 11 10 8 7 9 10 10 12 13 13 14 15 16 16 16 16 17 17 17 16 13 11 11 11 10 8 8 8 10 11 11 11
14 19 18 14 14 12 11 13 11 8 5 6 8 10 7 6 8 8 10 11 12 12 13 15 16 17 18 18 18 18 18 17 16 13 11 9 9 8 8 8 9 11 11 11
20 12 16 15 16 16 15 14 12 8 6 8 8 11 10 7 7 7 8 9 11 12 14 15 16 17 18 19 19 17 18 18 17 15 11 9 8 7 8 9 9 11 12 12
17 11 14 17 18 17 15 12 10 9 9 9 9 10 9 9 8 7 8 9 10 11 12 14 16 17 18 18 17 16 17 17 16 15 13 14 12 11 11 9 9 10 12 13
14 15 17 19 18 17 12 9 11 11 11 10 10 10 7 8 8 7 7 8 9 10 11 13 14 15 16 17 16 16 16 16 16 16 15 14 13 11 9 9 10 10 11 12
12 12 15 16 15 15 10 9 9 9 11 14 12 11 7 6 6 5 6 7 7 8 10 11 12 13 14 15 15 15 15 15 16 17 16 15 14 13 12 11 11 10 9 10
14 14 14 13 15 17 16 13 10 11 11 11 9 9 6 2 2 3 4 5 6 7 8 10 11 12 13 15 15 14 14 15 15 16 16 15 15 14 14 13 12 10 9 10
16 16 17 15 17 15 20 20 12 10 12 9 8 9 4 3 2 2 3 4 5 7 7 9 10 11 12 13 14 14 14 15 15 15 15 13 14 12 11 12 11 11 10 10
13 12 15 16 17 16 19 19 15 9 8 9 8 6 5 5 5 4 5 6 6 6 7 8 9 10 10 11 12 13 13 13 14 14 14 13 14 14 12 11 11 10 10 10
9 10 14 15 14 16 16 17 11 11 10 11 9 9 7 9 7 6 7 7 7 7 7 8 8 9 9 9 9 10 11 11 12 12 12 12 14 14 12 12 12 11 11 11
11 10 13 16 17 19 15 17 14 13 10 9 8 6 4 7 7 6 6 6 7 7 7 7 7 8 8 8 8 8 8 9 9 10 10 11 12 12 12 11 12 11 11 12
13 9 12 16 13 13 17 17 16 13 11 10 8 4 7 7 6 6 7 7 7 7 7 8 8 8 7 7 7 7 7 8 8 8 9 10 11 10 11 12 12 11 11 12
12 9 11 13 12 13 16 17 17 15 11 11 11 5 9 8 7 6 7 8 8 8 7 7 7 7 6 6 6 6 6 6 7 7 8 8 9 10 11 11 11 11 12 12
8 11 13 14 13 16 16 17 17 16 13 12 12 7 10 9 8 8 8 8 8 8 7 6 6 5 5 5 5 5 5 5 6 6 7 8 8 9 10 10 11 11 12 12
7 12 12 10 9 13 14 16 18 18 16 13 10 9 9 9 9 8 8 8 8 7 6 6 5 5 4 4 4 4 4 5 5 6 7 7 7 8 9 9 10 11 11 12
6 9 11 10 10 11 12 14 16 16 15 13 9 6 6 9 9 9 8 8 8 6 6 5 5 4 4 4 4 4 4 4 5 6 6 6 7 7 8 8 9 10 10 10
7 8 11 12 13 12 12 12 13 13 12 13 12 7 11 11 10 9 8 7 7 6 5 4 4 3 3 3 4 4 4 5 5 6 6 5 5 6 7 8 8 9 10 10
6 8 8 10 13 15 6 5 8 9 7 6 6 9 11 10 10 8 7 7 6 5 4 4 3 2 2 3 3 3 3 4 4 4 5 5 5 5 5 6 7 7 7 8
7 7 7 9 13 10 7 7 8 9 7 6 9 11 12 14 13 9 7 7 6 6 5 3 3 2 2 2 3 3 3 4 4 4 4 4 5 5 5 5 6 6 6 7
7 7 8 9 12 12 7 8 6 7 8 7 10 12 14 13 8 7 7 7 7 6 5 5 4 4 3 2 2 3 3 3 3 3 3 3 4 4 4 5 5 5 5 6
9 8 11 10 9 5 5 6 8 10 6 9 10 11 11 7 6 10 9 8 7 7 6 6 5 5 4 2 2 2 2 1 1 1 1 2 2 3 3 3 4 4 5 5
7 8 9 9 10 5 4 6 5 3 7 10 10 10 11 13 14 12 10 9 8 7 7 7 6 6 5 4 2 2 1 1 0 1 1 1 1 2 2 2 3 3 3 4
3 2 2 2 1 5 3 3 4 4 7 9 10 12 14 15 13 12 10 9 8 8 8 7 7 7 7 6 4 3 2 1 1 2 2 2 2 1 2 2 3 3 3 3
2 1 2 2 3 5 5 5 5 6 9 10 12 14 14 14 13 11 10 9 8 8 8 8 8 8 7 7 7 5 4 2 2 3 3 2 3 3 2 2 2 2 2 3
1 2 3 3 4 5 5 5 8 10 11 13 13 14 13 14 13 11 10 9 8 8 8 8 8 8 8 8 7 7 6 4 4 4 4 3 3 3 4 4 5 3 3 3
2 2 2 3 4 3 5 6 9 11 13 14 15 14 13 12 12 11 10 9 9 9 8 9 9 9 9 9 9 8 7 6 5 4 4 4 3 4 5 6 7 13 10 13
Wind_Direction
187 202 208 206 214 234 226 219 211 202 184 218 224 229 218 208 212 213 205 198 198 199 191 187 187 188 185 187 189 190 190 186 185 187 191 192 193 195 196 196 190 191 193 191
189 215 215 211 211 221 220 218 211 192 191 227 228 232 222 213 213 218 212 206 202 193 187 187 188 190 190 191 191 192 193 190 190 192 195 197 194 196 198 200 194 198 198 196
203 209 205 207 206 212 217 218 210 200 201 219 230 229 213 200 208 212 213 210 206 197 192 191 193 193 193 194 194 195 194 192 193 191 191 191 191 197 200 201 200 202 202 202
217 207 195 202 208 210 215 216 221 216 221 213 220 236 203 198 199 204 209 208 206 202 197 194 196 196 195 194 193 195 194 194 192 191 195 195 199 203 205 201 200 200 204 207
208 203 200 207 208 208 216 205 216 222 228 234 216 243 209 185 209 210 207 207 205 203 202 198 196 194 193 191 191 193 193 193 192 193 197 200 207 208 205 201 198 202 204 211
212 199 207 212 207 204 198 188 200 220 227 229 221 232 228 194 212 215 202 202 200 197 198 194 188 185 187 188 189 190 191 193 193 195 200 205 208 208 204 202 200 202 205 208
204 203 205 207 197 194 197 193 193 202 213 223 201 228 233 169 199 222 205 193 187 183 185 183 179 180 182 184 186 188 191 194 196 200 203 208 210 210 209 207 206 207 208 208
197 199 198 200 200 191 202 207 211 208 211 204 188 225 206 151 159 171 181 171 170 171 172 175 176 178 180 180 183 188 193 196 197 203 207 210 212 213 216 215 211 209 213 213
198 198 187 197 203 203 199 214 226 240 231 220 198 199 195 179 171 162 158 156 157 163 165 168 170 171 173 176 183 189 193 198 199 203 204 209 213 214 216 214 214 213 215 215
207 199 185 188 197 211 213 206 214 225 217 221 207 209 201 177 177 164 158 155 152 153 155 159 161 166 168 172 176 183 190 196 198 201 206 209 213 214 215 214 215 213 210 211
212 203 182 186 199 194 199 203 210 217 230 229 211 197 153 163 163 162 154 153 151 153 153 153 151 154 160 163 167 173 179 187 193 198 204 210 212 212 213 213 213 211 209 208
210 212 191 193 199 207 202 204 205 210 213 237 243 161 120 141 141 147 144 143 143 147 147 142 141 146 153 158 162 168 176 188 196 199 203 208 209 209 211 211 211 208 208 209
198 210 192 185 191 202 208 208 212 220 219 224 230 171 131 139 139 140 139 137 137 139 137 137 138 143 150 158 165 174 180 188 194 197 203 208 207 210 213 209 207 207 207 209
214 214 219 206 192 188 198 204 210 216 222 220 226 192 160 162 154 148 142 141 140 139 137 137 140 142 147 157 168 177 181 187 194 197 204 207 211 213 213 209 207 207 207 209
212 213 223 229 204 194 200 202 206 216 226 229 216 204 177 169 158 149 147 145 143 143 145 145 146 145 151 158 166 176 183 186 191 195 202 209 212 212 212 210 209 208 209 210
211 212 205 209 205 201 203 207 208 213 222 227 215 184 137 139 139 141 144 147 147 146 146 145 147 150 160 168 176 180 185 186 191 198 203 208 213 212 211 210 208 208 210 211
199 203 206 206 200 200 209 209 208 208 216 218 216 185 147 146 143 143 141 142 141 139 136 132 138 145 160 173 180 191 191 187 191 198 200 203 212 217 216 213 208 208 208 208
213 214 213 206 197 212 200 196 204 197 198 205 172 148 152 139 127 118 121 126 123 118 116 114 119 127 146 162 174 185 181 186 191 200 203 200 209 214 214 215 213 211 209 207
211 214 214 209 206 205 178 179 189 190 181 174 156 144 137 132 124 104 91 96 96 94 92 91 90 99 108 141 167 175 180 183 186 196 207 207 209 209 206 207 208 208 208 208
188 216 220 213 212 213 183 164 189 193 185 167 158 151 151 160 167 131 106 98 92 87 84 80 78 80 83 93 136 154 167 178 186 195 208 210 210 210 210 210 213 210 207 209
183 199 216 216 216 195 119 152 182 204 176 154 159 156 160 159 105 118 114 101 92 83 76 72 69 65 54 59 110 124 121 147 201 213 213 209 211 216 212 209 209 208 204 200
202 196 203 214 219 190 118 171 188 108 113 138 145 144 126 111 110 113 108 99 89 79 69 65 64 60 49 45 76 85 60 20 141 151 134 146 181 211 198 190 196 193 185 183
227 267 212 213 144 70 75 85 74 111 128 129 130 126 125 121 118 113 106 97 86 75 65 58 59 57 48 41 45 48 24 23 87 110 112 122 124 141 157 163 170 171 174 183
176 239 191 149 107 91 86 91 98 111 120 120 122 126 126 122 119 114 108 97 86 75 67 61 59 57 50 41 40 38 31 35 75 96 99 103 103 97 107 113 126 142 164 176
218 200 180 161 133 118 100 98 110 114 118 118 117 117 120 119 117 113 106 95 84 76 67 64 62 59 53 47 44 37 35 43 62 77 80 81 84 91 84 74 51 56 51 41
243 236 216 178 158 141 122 114 118 118 120 120 118 115 114 114 113 109 102 94 86 79 72 68 63 59 54 50 46 39 37 47 59 70 75 82 86 90 93 88 78 58 59 55
Height
1468 1468 1464 1460 1459 1456 1456 1459 1461 1460 1461 1464 1463 1462 1461 1465 1469 1470 1473 1478 1482 1486 1490 1494 1497 1501 1504 1508 1512 1515 1519 1523 1527 1531 1534 1538 1541 1544 1547 1550 1552 1555 1557 1560
1465 1462 1456 1456 1458 1460 1461 1463 1461 1462 1463 1463 1462 1461 1460 1463 1466 1468 1471 1475 1478 1483 1487 1490 1493 1496 1499 1503 1506 1511 1515 1519 1523 1527 1531 1535 1539 1541 1544 1547 1549 1552 1555 1558
1455 1452 1453 1458 1461 1464 1462 1461 1460 1463 1463 1461 1463 1464 1460 1461 1465 1467 1469 1472 1475 1479 1483 1486 1489 1492 1495 1499 1503 1507 1511 1515 1519 1524 1528 1532 1535 1538 1541 1544 1546 1549 1552 1555
1451 1449 1453 1457 1459 1460 1462 1457 1459 1463 1466 1462 1463 1467 1457 1456 1460 1463 1466 1469 1472 1476 1479 1482 1485 1488 1491 1495 1500 1504 1508 1512 1516 1520 1524 1527 1530 1533 1537 1540 1543 1546 1549 1552
1447 1447 1452 1455 1453 1456 1455 1455 1459 1461 1462 1462 1461 1465 1455 1453 1458 1458 1462 1466 1469 1473 1476 1479 1482 1485 1489 1493 1497 1500 1504 1508 1512 1516 1520 1523 1527 1530 1534 1537 1540 1543 1545 1548
1440 1444 1446 1447 1448 1452 1454 1458 1460 1460 1459 1471 1461 1464 1460 1451 1455 1455 1459 1463 1467 1470 1473 1477 1480 1483 1486 1490 1494 1497 1501 1504 1508 1512 1515 1519 1522 1526 1529 1532 1535 1539 1542 1545
1444 1443 1442 1443 1447 1451 1453 1460 1470 1474 1473 1468 1454 1462 1457 1450 1453 1455 1458 1461 1465 1469 1472 1475 1478 1481 1484 1487 1491 1494 1498 1501 1505 1508 1512 1515 1518 1522 1524 1528 1531 1534 1538 1540
1445 1446 1439 1439 1441 1446 1449 1450 1459 1470 1469 1460 1460 1460 1451 1450 1455 1458 1460 1462 1465 1467 1470 1473 1476 1479 1482 1485 1488 1491 1494 1498 1501 1505 1508 1511 1515 1518 1520 1523 1526 1529 1533 1536
1434 1437 1432 1434 1435 1437 1445 1444 1437 1447 1449 1456 1454 1453 1451 1451 1454 1457 1459 1462 1464 1467 1469 1472 1475 1478 1481 1484 1486 1489 1492 1495 1498 1501 1504 1507 1510 1513 1516 1519 1521 1524 1528 1531
1425 1434 1430 1432 1434 1436 1434 1438 1443 1449 1461 1465 1457 1455 1450 1449 1451 1454 1457 1460 1464 1467 1469 1472 1474 1477 1480 1483 1485 1488 1490 1493 1495 1498 1501 1503 1506 1509 1511 1514 1517 1519 1522 1526
1422 1431 1432 1432 1435 1435 1438 1439 1438 1442 1443 1454 1461 1454 1438 1443 1448 1452 1455 1459 1463 1466 1469 1471 1474 1476 1479 1482 1484 1486 1488 1490 1493 1495 1497 1499 1502 1505 1507 1509 1512 1515 1518 1521
1422 1423 1429 1429 1426 1424 1429 1431 1436 1447 1451 1445 1446 1450 1440 1444 1449 1452 1456 1460 1463 1466 1468 1471 1473 1476 1478 1481 1483 1485 1487 1488 1490 1492 1494 1496 1498 1501 1503 1506 1508 1511 1514 1517
1423 1426 1435 1437 1436 1430 1429 1428 1430 1433 1439 1443 1448 1449 1443 1447 1450 1454 1457 1460 1463 1466 1469 1471 1474 1475 1477 1479 1482 1484 1485 1487 1489 1490 1492 1494 1495 1497 1500 1502 1505 1507 1510 1513
1423 1424 1426 1430 1426 1424 1429 1429 1428 1432 1439 1441 1440 1440 1443 1446 1450 1454 1458 1461 1464 1467 1469 1471 1473 1474 1476 1478 1480 1482 1483 1485 1487 1488 1490 1492 1493 1495 1497 1499 1502 1504 1507 1509
1422 1423 1420 1415 1413 1416 1422 1425 1427 1430 1429 1433 1432 1433 1438 1444 1449 1454 1458 1461 1464 1467 1469 1471 1473 1474 1475 1477 1478 1480 1482 1483 1485 1486 1488 1489 1491 1493 1495 1497 1499 1501 1503 1506
1422 1421 1420 1422 1418 1418 1422 1422 1423 1426 1426 1427 1429 1435 1438 1446 1451 1455 1459 1461 1464 1467 1469 1471 1472 1474 1475 1476 1477 1479 1480 1481 1483 1484 1486 1487 1489 1491 1492 1494 1496 1498 1500 1502
1420 1422 1423 1423 1419 1422 1430 1424 1423 1425 1424 1425 1430 1434 1442 1447 1452 1456 1459 1462 1464 1467 1469 1470 1472 1473 1474 1475 1476 1478 1479 1480 1481 1482 1484 1485 1487 1489 1490 1492 1494 1495 1497 1499
1424 1423 1419 1418 1425 1437 1426 1421 1421 1424 1427 1427 1429 1436 1442 1448 1454 1458 1461 1463 1465 1467 1469 1470 1471 1472 1473 1474 1475 1476 1478 1479 1480 1481 1483 1484 1485 1486 1487 1489 1490 1492 1494 1495
1424 1423 1419 1419 1425 1426 1426 1423 1423 1426 1431 1432 1435 1440 1446 1451 1455 1460 1463 1465 1466 1468 1469 1470 1471 1472 1472 1473 1474 1475 1476 1477 1479 1480 1481 1482 1482 1483 1485 1486 1487 1489 1490 1492
1424 1423 1420 1420 1425 1429 1421 1422 1425 1427 1434 1435 1438 1441 1446 1449 1449 1460 1465 1466 1467 1468 1469 1470 1470 1471 1471 1472 1472 1473 1474 1475 1476 1477 1478 1479 1480 1481 1482 1483 1485 1486 1488 1489
1423 1424 1421 1421 1422 1418 1421 1424 1427 1433 1432 1436 1439 1443 1446 1448 1451 1461 1464 1466 1468 1469 1469 1470 1470 1470 1470 1471 1471 1472 1473 1473 1474 1475 1476 1477 1477 1479 1480 1481 1482 1483 1485 1487
1419 1419 1423 1421 1424 1426 1426 1425 1427 1431 1434 1436 1441 1445 1448 1452 1457 1461 1465 1467 1468 1469 1470 1470 1470 1470 1470 1470 1470 1471 1471 1472 1473 1473 1474 1474 1475 1476 1478 1479 1480 1481 1482 1484
1421 1421 1418 1422 1427 1431 1431 1432 1435 1436 1437 1440 1443 1447 1451 1455 1459 1463 1466 1468 1469 1470 1470 1470 1470 1470 1470 1470 1470 1470 1470 1471 1471 1471 1472 1473 1474 1475 1476 1477 1478 1479 1480 1481
1425 1426 1425 1428 1431 1434 1435 1436 1437 1438 1440 1443 1446 1449 1453 1457 1461 1464 1467 1469 1470 1471 1471 1471 1471 1471 1470 1470 1470 1470 1470 1470 1470 1470 1471 1472 1472 1473 1474 1475 1477 1478 1479 1480
1426 1426 1426 1430 1434 1436 1437 1439 1439 1441 1443 1446 1449 1453 1456 1459 1462 1465 1468 1470 1471 1472 1472 1473 1472 1472 1471 1470 1470 1470 1469 1469 1469 1470 1470 1471 1472 1473 1473 1474 1475 1476 1477 1479
1428 1427 1426 1428 1434 1435 1439 1441 1442 1443 1446 1449 1452 1456 1460 1462 1465 1467 1469 1471 1473 1473 1474 1474 1474 1474 1473 1472 1471 1471 1470 1470 1469 1470 1470 1471 1472 1472 1473 1474 1475 1476 1477 1478